Helicity
110 118 109 172 200 279 227 217 230 129 106 87 70 93 71 100 74 26 20 8 162 184 109 61 74 87 66 63 67 62 63 73 79 81 83 69 62 65 58 42 30 25 25 28 36 41 50 55 58
98 95 153 185 254 305 225 216 210 144 171 185 102 78 68 83 120 92 147 44 125 187 163 96 89 92 85 72 89 90 88 86 79 75 73 73 80 75 50 34 28 44 52 51 59 63 61 61 67
82 116 159 190 241 294 231 175 154 138 172 140 180 122 97 96 108 92 136 118 151 167 163 135 104 92 110 114 110 94 83 75 76 78 71 68 67 53 37 39 44 46 54 58 54 56 55 57 65
109 154 193 230 203 188 222 209 172 156 168 168 126 170 117 95 84 103 153 165 173 161 144 145 134 128 114 112 102 96 87 76 73 72 72 66 60 49 45 43 46 48 50 50 49 57 61 66 71
128 179 202 222 189 224 187 150 139 96 77 167 147 140 120 50 54 99 164 177 175 155 140 161 171 145 139 125 106 89 86 78 74 69 69 61 58 52 49 47 52 56 59 62 64 70 73 76 72
185 199 206 186 167 167 169 91 59 83 61 65 123 134 95 48 76 108 153 175 152 150 166 171 182 170 166 130 98 89 81 76 73 69 65 62 56 54 52 51 56 63 70 73 67 63 67 64 51
178 200 178 181 148 161 126 116 126 95 79 83 72 88 93 75 108 161 187 209 186 211 260 238 239 213 161 142 106 92 78 70 67 65 63 63 57 53 55 58 62 64 60 58 57 56 53 47 37
167 194 205 171 127 72 93 154 108 114 133 137 63 161 178 116 118 162 237 239 254 251 272 301 285 249 208 161 125 98 80 71 67 67 71 77 71 67 68 65 63 59 59 54 56 58 52 44 49
139 206 200 179 98 66 137 155 91 93 102 92 86 80 96 121 129 204 227 254 273 236 269 274 259 236 187 159 124 111 102 96 77 66 67 66 57 63 69 66 60 53 57 48 52 54 54 62 76
165 213 139 91 107 102 115 94 62 58 106 88 93 120 121 40 88 166 187 193 209 269 281 265 227 206 172 152 136 126 107 86 71 63 59 49 52 56 64 72 70 63 60 71 72 65 67 78 73
178 189 115 140 112 110 80 111 43 35 49 15 40 115 113 104 104 125 155 187 217 260 284 253 235 194 157 139 126 117 96 85 78 62 53 53 53 61 62 55 51 45 56 46 68 76 74 73 75
134 103 99 123 117 115 84 62 69 57 60 36 42 59 96 208 110 103 146 179 226 254 242 235 228 187 155 139 112 97 85 74 72 62 50 50 58 62 59 57 54 51 54 47 57 64 70 70 70
133 118 88 90 86 90 77 65 57 65 47 15 28 68 133 128 172 132 140 166 208 232 242 219 204 171 158 136 113 102 86 71 64 65 55 45 53 62 51 68 59 53 52 53 53 66 62 61 60
139 114 83 94 81 96 91 57 57 53 63 47 12 34 100 127 155 136 174 146 177 217 228 224 190 164 151 128 99 92 84 72 65 63 58 53 50 59 54 66 66 57 53 50 46 58 51 54 49
81 85 98 123 116 156 98 101 87 71 72 65 67 78 111 110 100 116 174 161 131 205 244 206 175 159 141 123 114 98 85 75 68 64 64 55 50 57 58 58 67 59 51 50 49 57 55 53 46
131 140 182 180 147 105 103 98 79 91 40 55 45 40 95 105 77 114 170 130 174 198 209 205 179 151 143 134 124 111 94 81 70 64 65 61 58 53 59 55 54 58 53 43 50 55 61 57 54
133 188 167 110 97 81 170 158 66 -13 83 87 89 56 70 99 74 90 122 139 167 175 195 207 175 154 153 154 142 122 101 88 71 64 63 63 59 55 56 55 48 58 59 53 46 79 68 64 53
166 160 183 185 175 123 120 109 70 57 14 44 80 102 53 112 84 60 109 144 170 189 153 212 173 171 177 187 177 160 127 103 81 64 57 61 57 57 63 57 66 59 63 59 60 77 85 73 61
136 125 116 172 164 132 177 139 25 14 51 56 64 104 74 93 110 43 113 166 181 188 202 215 190 192 206 208 182 151 114 94 87 67 58 54 58 58 64 55 75 71 68 60 57 67 87 81 68
168 134 203 182 136 177 195 219 97 19 66 80 80 78 78 82 84 64 108 144 173 182 188 225 187 172 172 166 164 129 107 86 77 67 64 56 58 57 65 59 81 74 60 70 78 81 70 70 76
163 140 120 128 103 215 224 349 195 65 43 79 87 99 105 67 90 100 127 131 191 187 183 189 184 164 164 168 172 159 138 128 99 76 60 57 55 64 73 61 84 70 59 63 71 72 83 76 67
56 57 88 113 106 167 294 220 208 128 66 97 62 82 83 93 91 144 117 135 149 194 169 197 192 170 153 142 136 116 120 98 59 56 55 55 64 64 64 68 72 70 60 66 66 68 74 72 83
91 72 120 132 128 111 269 245 310 190 134 24 94 95 77 102 104 133 117 111 134 178 188 206 190 182 148 125 109 97 91 83 77 75 70 66 65 62 59 64 60 65 64 68 70 76 84 73 75
82 54 99 74 71 104 116 177 263 122 79 66 102 99 96 127 123 102 110 145 166 143 211 197 211 207 152 106 86 71 65 70 76 71 64 60 62 62 50 59 57 65 66 67 66 75 79 77 77
44 52 41 45 125 152 192 215 324 158 24 96 67 108 109 163 136 82 130 215 182 168 204 179 203 228 155 103 71 68 52 55 50 49 52 56 63 41 61 48 64 66 68 70 71 75 75 73 78
97 88 56 99 116 143 232 122 125 39 43 41 -20 64 106 175 141 86 121 286 197 223 139 165 199 185 106 110 53 65 64 63 51 47 56 55 59 68 52 67 75 74 75 80 79 73 74 75 76
87 93 93 118 174 162 143 224 151 52 19 15 31 53 62 139 116 98 166 193 172 208 169 181 200 179 127 116 102 89 69 67 51 58 64 56 78 67 70 92 94 86 87 87 90 86 83 76 71
120 57 61 97 70 86 137 150 95 131 62 20 40 38 104 156 167 160 167 166 183 206 192 175 196 171 120 124 91 88 72 80 63 62 71 78 83 83 86 100 98 102 110 116 104 88 75 81 73
74 56 39 99 116 69 80 161 125 51 51 40 36 62 64 110 134 142 129 152 183 231 161 185 217 142 115 115 107 101 90 86 71 77 80 100 83 99 100 99 113 129 127 111 96 80 77 82 75
40 55 85 54 43 104 149 63 196 -55 15 127 47 18 44 119 124 168 203 192 177 216 142 147 209 91 86 118 122 94 92 91 95 97 99 102 102 108 108 124 142 134 116 103 98 88 75 80 81
Wind_Speed
60 53 41 39 47 50 57 53 49 48 46 41 39 35 39 42 31 36 33 16 23 30 32 37 37 33 29 26 27 28 29 28 28 30 31 33 34 34 35 35 35 35 35 35 36 37 39 40 41
57 45 38 40 54 54 59 53 50 48 46 53 44 43 45 49 41 38 17 13 21 25 26 28 30 27 24 19 22 23 26 25 26 27 29 31 32 33 33 33 34 36 36 36 37 38 39 41 42
47 42 40 44 53 60 67 54 53 60 60 54 53 45 47 45 44 34 32 4 13 17 17 21 22 22 19 15 16 19 22 22 23 25 27 29 31 31 31 32 32 32 33 33 34 36 37 38 40
48 44 42 54 57 55 56 55 54 63 53 51 55 64 49 45 43 35 17 2 6 8 12 18 16 14 13 12 11 15 18 21 22 24 26 28 30 30 31 31 31 31 32 32 33 34 36 38 39
45 45 59 65 67 64 59 58 59 70 67 67 62 64 60 48 42 30 17 8 7 3 4 10 12 9 9 8 8 11 15 18 21 23 25 27 28 29 30 31 31 31 31 32 34 35 37 39 40
52 49 69 78 76 67 65 65 68 66 63 65 63 65 59 51 42 33 22 16 12 8 5 4 7 5 1 4 7 10 14 17 20 22 24 26 28 29 30 30 31 31 32 33 34 35 36 38 40
55 62 76 78 82 78 66 57 66 71 67 62 59 67 61 55 43 35 30 26 21 17 11 9 7 3 4 4 7 11 14 17 19 21 23 25 28 30 30 30 31 31 32 33 34 35 36 37 40
50 58 76 75 82 85 67 68 64 65 65 63 54 61 61 55 42 36 34 34 28 22 16 13 11 9 8 9 10 13 14 17 18 20 22 25 29 30 31 31 32 32 33 34 34 36 37 37 37
45 68 82 80 78 77 67 72 63 61 68 63 57 54 59 60 40 39 39 39 35 30 24 18 16 12 10 10 13 14 15 17 18 19 21 24 27 30 31 33 33 33 34 33 34 36 37 38 36
55 71 75 66 69 78 79 78 78 76 80 77 74 63 62 54 48 48 48 46 44 39 31 25 20 17 14 13 12 14 16 19 19 19 21 23 24 28 30 32 33 34 35 35 36 36 37 37 36
59 74 70 73 73 78 87 92 78 83 95 79 75 82 76 69 61 59 56 52 49 45 37 30 26 21 17 13 12 15 17 18 18 19 21 24 24 26 28 30 31 33 34 35 36 36 37 37 36
69 66 72 77 77 86 98 92 100 94 99 86 87 81 83 84 70 69 64 58 53 49 43 33 29 25 21 15 14 14 15 18 19 19 21 22 23 25 27 29 32 32 33 33 33 34 35 37 37
62 68 72 76 83 87 92 106 105 111 103 95 97 95 91 84 80 70 68 63 58 54 47 39 33 29 24 19 16 15 16 18 19 19 21 21 22 24 27 29 31 32 32 33 31 32 34 35 36
53 64 73 76 86 88 95 106 97 112 96 97 88 85 84 86 83 69 69 68 64 58 50 44 39 34 26 23 18 17 17 17 19 20 20 21 21 23 26 28 30 31 32 32 30 31 33 35 35
44 65 53 63 62 63 65 94 100 105 92 100 102 102 98 90 83 75 69 70 67 61 52 47 42 37 31 26 21 18 17 17 19 19 20 21 22 24 26 27 30 31 32 31 29 32 34 36 36
46 38 60 46 53 52 49 101 94 84 84 96 91 91 92 89 84 74 66 68 66 63 54 50 46 42 34 28 23 19 18 18 18 19 20 22 22 24 25 28 29 30 31 31 31 32 33 35 36
42 53 42 46 35 32 33 64 82 62 69 84 86 88 84 83 77 72 65 66 66 64 56 50 47 43 35 29 23 19 18 18 19 20 21 22 22 24 26 27 29 30 32 32 31 34 34 35 36
58 47 46 45 48 41 34 43 44 86 84 88 86 82 82 79 80 70 67 67 65 65 60 47 48 43 35 29 24 21 20 21 21 22 22 22 22 24 26 28 30 31 33 34 34 34 36 37 41
43 38 39 39 35 40 35 42 61 87 82 87 88 90 88 86 77 70 68 69 63 67 61 52 49 45 37 32 29 27 26 23 23 23 22 22 23 24 26 28 30 33 33 36 36 35 37 41 47
43 32 36 35 30 30 35 47 45 91 85 86 88 88 88 82 78 69 67 69 66 69 66 57 53 47 42 34 30 30 24 27 24 22 22 22 22 24 26 28 30 32 34 36 38 40 36 40 48
41 33 27 32 34 33 36 45 33 47 38 76 85 86 88 85 80 73 70 74 66 69 68 58 53 47 43 34 27 24 24 24 26 24 23 23 23 24 26 28 30 32 34 36 37 39 40 42 42
63 45 31 33 50 52 38 36 26 14 26 43 87 80 91 87 82 74 74 76 71 72 66 59 54 48 43 34 31 31 31 27 30 24 22 21 23 25 27 28 30 32 34 35 37 38 39 40 43
51 54 36 31 28 38 32 27 37 20 8 30 50 67 87 85 84 81 79 75 72 69 65 57 53 51 44 36 33 34 33 31 25 22 19 21 24 26 27 28 31 32 35 35 35 38 38 39 40
49 64 51 40 44 44 47 25 26 38 17 7 24 58 69 77 83 85 79 65 65 67 62 58 55 56 45 37 34 33 32 31 24 22 21 23 25 27 27 29 31 33 35 36 36 36 38 40 40
46 64 66 56 57 50 45 33 22 27 45 18 9 24 56 66 82 84 82 68 64 67 63 63 58 58 47 34 35 32 33 33 26 22 22 24 26 28 26 30 32 34 35 36 36 37 38 39 41
53 47 53 58 66 31 38 29 40 54 51 39 5 9 50 66 83 95 88 71 62 64 65 63 58 53 35 38 26 36 37 31 28 24 24 25 27 27 28 29 32 34 35 37 37 38 39 40 42
48 44 45 49 37 36 36 43 43 46 72 56 14 21 61 74 87 94 85 69 56 62 61 60 58 50 45 30 25 23 34 28 27 24 23 25 26 28 29 32 33 35 37 37 38 40 42 43 45
28 42 52 44 53 30 50 49 43 75 57 58 39 4 58 68 75 74 57 55 51 55 54 55 53 48 37 30 24 20 32 25 24 22 23 23 24 28 30 32 34 35 37 39 40 42 43 46 48
37 41 40 37 32 36 52 41 36 17 27 40 34 36 55 70 74 77 62 55 46 49 52 52 54 46 38 27 22 27 27 24 22 22 23 23 26 27 30 31 33 36 39 40 42 44 47 50 52
27 32 43 43 35 10 16 4 38 69 28 33 33 37 48 55 67 66 56 52 42 52 49 52 52 43 32 28 26 24 23 20 20 20 22 23 26 28 29 32 35 37 39 42 45 49 51 55 60
Wind_Direction
313 312 315 306 292 290 282 284 289 289 291 300 299 296 294 293 304 313 326 20 98 115 123 128 125 116 109 98 91 89 86 68 55 53 48 46 52 57 58 56 52 45 46 48 44 39 29 19 15
315 317 314 300 284 280 284 286 283 284 291 292 294 292 290 286 292 308 339 357 109 114 119 123 122 115 106 91 87 75 72 58 51 47 43 41 40 46 56 60 60 47 38 36 33 23 13 13 12
322 322 304 296 286 277 283 287 289 282 287 290 288 290 291 288 290 299 304 26 109 112 116 123 121 116 101 86 71 67 66 54 44 40 37 36 36 45 52 48 44 44 38 31 28 26 24 20 16
318 312 308 289 284 291 287 290 290 285 287 290 291 282 288 289 294 290 303 224 132 114 118 125 125 115 100 81 56 59 56 52 40 36 32 35 37 41 41 42 42 41 38 35 32 31 26 20 18
320 308 291 289 287 288 289 292 291 282 281 282 288 278 281 289 289 289 272 229 215 190 133 129 128 125 104 71 39 40 38 39 29 29 26 29 33 36 38 41 39 39 38 33 31 28 26 23 22
307 305 289 286 286 289 290 289 287 284 284 283 283 281 281 288 281 277 258 243 246 234 243 170 142 139 50 33 25 17 20 21 19 24 25 31 34 39 42 44 43 38 35 33 32 33 33 31 27
304 296 289 288 287 287 291 297 288 284 282 281 287 278 281 284 279 268 252 252 253 255 252 255 251 253 276 320 346 350 356 2 12 18 24 28 31 33 38 40 37 36 35 33 34 36 36 34 31
309 301 291 291 288 287 292 291 290 287 281 287 286 279 278 287 276 263 251 250 251 251 245 252 257 265 274 295 316 329 343 351 3 11 16 20 15 21 27 28 30 30 29 30 34 33 31 35 38
317 297 291 290 289 290 293 289 290 291 282 283 282 281 288 286 274 257 248 248 248 250 248 245 252 257 271 290 305 319 332 341 352 1 7 10 11 18 20 19 20 25 23 32 38 33 33 34 39
308 298 296 296 293 290 290 288 288 284 280 277 278 276 288 293 269 254 244 244 243 245 248 242 242 253 263 282 299 310 319 323 335 349 357 0 12 13 14 16 17 17 21 23 29 31 32 36 40
310 299 299 296 294 293 289 285 286 281 275 277 276 275 278 282 270 255 248 243 244 244 247 243 241 248 256 269 289 303 312 320 329 341 348 353 5 10 11 12 11 12 14 21 26 29 31 36 40
310 306 300 299 296 292 286 286 279 277 274 277 277 277 273 273 269 257 248 245 243 242 244 242 241 244 252 264 282 297 308 314 322 334 342 353 0 6 8 10 4 8 15 18 26 29 36 36 39
313 310 306 303 299 295 290 281 278 274 275 275 274 272 269 266 267 259 248 246 242 240 242 241 240 242 247 258 273 288 301 310 318 328 335 347 355 358 0 6 6 9 15 17 24 29 37 39 35
328 320 313 310 304 299 292 284 280 273 274 272 269 268 268 264 263 259 247 243 240 240 239 240 239 241 245 254 264 278 294 306 314 324 334 343 352 360 0 360 359 6 12 16 24 30 33 28 29
338 324 326 319 317 312 307 289 279 276 275 269 265 264 263 262 261 254 247 239 239 238 237 235 236 240 244 250 259 272 288 300 310 321 332 340 346 351 356 360 1 8 12 17 26 30 22 21 23
337 336 332 336 330 324 317 294 290 286 274 266 265 262 260 259 256 252 247 238 235 235 233 234 236 239 243 247 255 267 282 296 306 315 325 333 342 349 355 354 2 10 9 11 23 22 18 18 19
343 332 330 332 335 321 311 306 298 295 278 268 265 261 258 258 254 248 243 236 233 230 231 231 232 234 238 243 251 264 278 290 300 310 320 330 339 346 353 355 0 6 9 3 18 18 11 12 11
337 332 330 329 342 331 308 283 273 282 279 270 265 263 258 255 250 247 241 235 231 228 230 229 229 231 233 239 249 263 275 285 294 303 314 328 336 346 353 354 360 5 5 1 13 12 9 7 1
326 317 308 308 317 313 301 284 254 279 277 269 263 259 257 254 252 247 240 232 229 227 227 227 225 228 229 236 245 257 266 277 288 299 311 323 334 341 349 353 0 2 0 2 7 9 6 359 354
329 305 305 302 319 316 297 279 260 270 273 268 262 257 254 253 248 243 236 230 228 226 226 228 226 226 231 236 247 260 265 274 284 296 308 320 334 340 345 351 1 2 357 1 3 3 4 1 356
339 327 307 302 320 321 314 287 268 248 238 270 262 257 253 249 244 238 233 228 228 226 225 226 224 226 231 235 245 259 269 275 280 290 302 313 326 338 344 353 3 0 354 355 5 3 1 357 1
339 352 342 330 342 345 359 292 331 288 238 278 257 258 250 246 240 236 230 227 227 225 224 225 223 223 229 232 243 249 261 268 275 286 302 314 325 333 341 354 1 356 355 1 1 1 4 359 356
337 341 341 332 325 338 342 345 0 9 287 219 274 261 247 243 236 231 227 228 229 226 224 223 222 223 227 232 244 252 259 270 278 289 303 314 323 332 343 356 351 354 348 358 3 359 3 1 358
338 335 338 345 353 351 350 352 348 358 359 270 223 265 250 239 231 227 224 228 227 225 221 221 220 223 225 232 242 250 257 265 275 286 297 309 321 330 347 349 353 353 352 353 358 2 1 358 359
346 340 337 343 352 352 356 351 302 321 341 344 273 259 246 232 224 220 220 225 224 222 220 220 220 224 229 231 242 248 257 262 274 287 298 309 319 327 349 343 350 352 354 355 358 359 360 357 356
340 347 346 341 344 315 5 13 3 349 337 331 283 172 241 225 220 217 219 227 224 219 218 219 219 221 221 229 236 247 250 263 276 289 301 313 321 339 342 351 353 352 352 354 356 358 358 357 356
349 348 352 343 351 359 10 3 1 4 339 316 321 186 235 218 213 208 213 220 218 217 218 218 216 217 222 225 233 249 252 266 278 294 309 317 329 335 345 347 350 352 352 355 356 355 354 355 353
0 353 349 355 350 359 357 5 5 316 299 308 303 179 224 215 209 209 220 218 215 214 215 216 216 216 219 227 234 245 251 271 286 303 312 326 342 338 341 348 351 353 354 357 358 355 354 352 350
3 0 3 1 6 5 353 9 23 319 292 274 280 236 214 206 206 207 220 217 212 210 214 214 216 217 217 221 234 246 258 275 290 303 314 337 340 349 348 352 354 352 353 356 355 353 351 349 348
23 13 360 359 8 349 1 334 21 353 259 270 251 230 217 213 208 208 212 212 209 208 212 214 215 216 217 223 235 250 263 280 296 309 324 335 341 350 353 353 353 353 354 354 351 349 348 346 343